User: anonymous   Login
Location: Dannhausen
(51.8650°N, 10.1026°E)
Time: 04:14:39
(UTC+00:00)
Language:

DOVE 4 - Orbit

View from above orbital plane
View from above orbital plane
View from above satellite
View from above satellite

Ground track
Ground track

The orbit data is extracted from the following two-line orbital elements,

1 39430U 13066Q   21290.75803153  .00000526  00000-0  10266-3 0  9992
2 39430  97.8102 206.7915 0151742  89.6213 272.2382 14.59697017420884
Epoch (UTC): 17 October 2021 18:11:33
Eccentricity: 0.0151742
inclination: 97.8102°
perigee height: 587 km
apogee height: 801 km
right ascension of ascending node: 206.7915°
argument of perigee: 89.6213°
revolutions per day: 14.59697017
mean anomaly at epoch: 272.2382°
orbit number at epoch: 42088

The dashed part of the orbit path shows where the satellite is in the earth's shadow,  

DLR